Cloud_Cover
5 0 0 0 0 0 0 0 0 0 0 0 0 0 0 0 1 0 5 77 72 98 100 100 97 96 56 100 100 67 37 100
0 0 0 0 0 0 0 0 0 0 0 0 0 0 5 5 1 5 8 20 7 5 30 99 100 100 100 100 78 85 100 100
0 0 0 0 0 0 0 0 0 0 0 0 5 8 74 5 14 60 100 96 99 100 100 99 100 99 100 100 100 100 65 78
0 0 0 0 0 0 0 0 0 0 0 0 5 14 56 41 9 32 88 87 100 100 100 100 100 100 97 93 100 100 100 98
5 0 0 0 0 0 0 0 0 0 1 0 0 0 5 5 5 66 74 98 100 100 100 100 100 100 100 100 99 100 100 100
0 0 0 0 0 0 0 0 0 0 0 0 0 0 5 5 0 30 93 100 100 100 100 100 100 100 89 100 100 98 100 100
0 0 0 0 0 0 0 0 0 0 0 0 0 0 0 0 0 9 16 1 47 100 100 100 94 61 100 82 5 1 94 100
0 0 0 0 0 0 0 0 0 0 0 0 0 0 0 0 14 94 100 66 59 29 42 70 100 98 77 95 75 4 2 100
0 0 0 0 0 0 0 0 4 3 2 0 0 0 3 5 96 88 94 100 100 100 95 100 100 100 96 95 16 53 10 2
0 0 0 0 0 0 0 0 0 5 2 0 0 1 5 96 100 100 100 99 74 5 100 100 100 100 100 87 6 1 17 5
0 0 0 0 0 0 0 0 1 4 0 1 0 1 5 87 84 14 6 10 5 5 37 83 100 94 100 46 9 5 0 1
0 0 0 0 0 0 0 0 2 3 2 2 0 0 5 96 7 5 14 40 5 5 11 17 44 41 11 68 5 1 0 27
0 0 0 1 3 0 0 0 5 5 5 5 2 0 5 8 1 5 15 26 5 7 24 33 12 13 28 5 5 3 10 99
0 0 3 5 5 5 5 2 5 5 5 5 1 0 5 5 2 6 50 61 19 10 34 74 68 6 67 43 72 1 61 23
0 0 5 5 5 4 4 2 5 5 5 5 4 0 0 4 4 5 49 19 77 60 86 82 95 100 5 100 68 90 43 2
0 5 5 5 5 5 4 5 5 5 1 1 1 5 0 0 1 5 90 5 100 53 47 93 99 100 80 44 86 100 100 76
2 5 5 5 5 5 5 5 67 5 4 0 5 5 5 5 0 3 79 78 5 5 42 90 99 100 91 94 90 41 88 100
5 5 5 5 4 1 5 5 7 5 5 5 5 5 5 0 5 2 5 81 5 8 59 100 70 99 87 100 99 100 100 100
5 5 5 5 5 0 1 5 0 4 5 5 5 5 5 5 38 5 5 83 5 11 32 82 95 93 100 100 100 100 100 100
5 5 6 5 5 2 4 5 5 5 5 5 5 5 5 5 5 5 5 55 5 5 61 13 97 100 100 100 100 100 100 100